Powrót do katalogu

STARLINK-4664

AktywnyŁącznośćVLEO
NORAD 53777·PAYLOAD·🇺🇸 United States

Wystrzelony Sep 11, 2022 z Cape Canaveral Space Force Station

Loading…

Następne Przeloty (najbliższe 24 godziny)

TLE

ŚwieżeSource: CelesTrak SupGP

Epoka: Sep 14, 2026, 21:37 UTC

1 53777C 22111E   26257.90118056  .00115710  00000+0  44013-2 0  2573
2 53777  53.1605 142.2427 0001311  89.3430  39.5926 15.26176404    17

Śledź STARLINK-4664 w czasie rzeczywistym z AllMySat

Download on the App Store